H1 CPF 2 NER 2025 8 12 9 224 01 glonass146 H2 2216101 9146 54377 2025 8 12 0 0 0 2025 8 15 23 45 0 900 1 1 0 0 0 1 H9 10 0 60899 0.00000 0 -11722751.565 -22676528.546 366617.981 10 0 60899 900.00000 0 -11738807.120 -22390803.677 3566886.589 10 0 60899 1800.00000 0 -11518758.220 -21780464.595 6698053.983 10 0 60899 2700.00000 0 -11026103.408 -20888231.408 9699479.959 10 0 60899 3600.00000 0 -10234608.249 -19765179.041 12513049.357 10 0 60899 4500.00000 0 -9129652.571 -18468527.058 15084287.740 10 0 60899 5400.00000 0 -7709098.229 -17059193.404 17363406.349 10 0 60899 6300.00000 0 -5983640.414 -15599214.103 19306257.050 10 0 60899 7200.00000 0 -3976626.854 -14149136.202 20875179.718 10 0 60899 8100.00000 0 -1723351.069 -12765492.148 22039726.565 10 0 60899 9000.00000 0 730152.585 -11498460.243 22777250.158 10 0 60899 9900.00000 0 3328763.938 -10389808.104 23073344.182 10 0 60899 10800.00000 0 6010315.432 -9471204.393 22922128.584 10 0 60899 11700.00000 0 8707931.511 -8762968.987 22326373.327 10 0 60899 12600.00000 0 11352573.846 -8273313.803 21297457.658 10 0 60899 13500.00000 0 13875688.479 -7998106.310 19855164.697 10 0 60899 14400.00000 0 16211846.296 -7921166.226 18027313.936 10 0 60899 15300.00000 0 18301267.830 -8015083.672 15849237.320 10 0 60899 16200.00000 0 20092127.640 -8242525.254 13363107.550 10 0 60899 17100.00000 0 21542542.010 -8557973.799 10617130.232 10 0 60899 18000.00000 0 22622156.351 -8909828.872 7664614.519 10 0 60899 18900.00000 0 23313265.085 -9242779.495 4562939.618 10 0 60899 19800.00000 0 23611416.150 -9500348.397 1372437.030 10 0 60899 20700.00000 0 23525473.926 -9627499.279 -1844789.377 10 0 60899 21600.00000 0 23077137.361 -9573195.398 -5026081.738 10 0 60899 22500.00000 0 22299933.387 -9292799.409 -8109460.170 10 0 60899 23400.00000 0 21237728.233 -8750210.970 -11034842.954 10 0 60899 24300.00000 0 19942820.001 -7919649.635 -13745229.714 10 0 60899 25200.00000 0 18473693.854 -6787005.743 -16187823.198 10 0 60899 26100.00000 0 16892535.595 -5350700.606 -18315066.614 10 0 60899 27000.00000 0 15262609.569 -3622018.286 -20085575.517 10 0 60899 27900.00000 0 13645612.347 -1624894.018 -21464945.657 10 0 60899 28800.00000 0 12099114.334 604832.548 -22426421.002 10 0 60899 29700.00000 0 10674197.219 3020668.304 -22951409.240 10 0 60899 30600.00000 0 9413386.403 5567169.643 -23029835.364 10 0 60899 31500.00000 0 8348964.625 8182026.225 -22660327.233 10 0 60899 32400.00000 0 7501736.469 10798438.537 -21850230.441 10 0 60899 33300.00000 0 6880294.126 13347690.168 -20615453.105 10 0 60899 34200.00000 0 6480813.450 15761807.751 -18980144.484 10 0 60899 35100.00000 0 6287386.973 17976198.164 -16976214.421 10 0 60899 36000.00000 0 6272877.937 19932153.754 -14642703.581 10 0 60899 36900.00000 0 6400257.613 21579122.023 -12025017.230 10 0 60899 37800.00000 0 6624368.038 22876646.266 -9174037.825 10 0 60899 38700.00000 0 6894034.626 23795897.486 -6145133.880 10 0 60899 39600.00000 0 7154438.646 24320735.026 -2997084.555 10 0 60899 40500.00000 0 7349648.918 24448253.094 209059.110 10 0 60899 41400.00000 0 7425205.633 24188791.765 3411154.317 10 0 60899 42300.00000 0 7330647.276 23565413.314 6547165.204 10 0 60899 43200.00000 0 7021874.203 22612866.885 9556357.283 10 0 60899 44100.00000 0 6463249.452 21376085.583 12380464.942 10 0 60899 45000.00000 0 5629348.445 19908279.322 14964810.061 10 0 60899 45900.00000 0 4506283.916 18268703.216 17259350.903 10 0 60899 46800.00000 0 3092550.054 16520194.470 19219641.898 10 0 60899 47700.00000 0 1399349.722 14726580.022 20807686.694 10 0 60899 48600.00000 0 -549610.114 12950062.270 21992668.843 10 0 60899 49500.00000 0 -2718847.815 11248690.929 22751546.779 10 0 60899 50400.00000 0 -5062332.812 9674025.432 23069502.017 10 0 60899 51300.00000 0 -7525158.835 8269084.438 22940232.079 10 0 60899 52200.00000 0 -10045597.245 7066667.225 22366082.250 10 0 60899 53100.00000 0 -12557447.314 6088116.611 21358012.945 10 0 60899 54000.00000 0 -14992587.666 5342574.934 19935402.325 10 0 60899 54900.00000 0 -17283624.417 4826764.377 18125686.657 10 0 60899 55800.00000 0 -19366526.827 4525301.266 15963843.901 10 0 60899 56700.00000 0 -21183141.206 4411531.666 13491729.031 10 0 60899 57600.00000 0 -22683478.183 4448853.701 10757272.565 10 0 60899 58500.00000 0 -23827677.190 4592471.295 7813556.807 10 0 60899 59400.00000 0 -24587565.078 4791505.432 4717787.015 10 0 60899 60300.00000 0 -24947742.401 4991373.485 1530177.272 10 0 60899 61200.00000 0 -24906150.650 5136335.188 -1687226.946 10 0 60899 62100.00000 0 -24474095.617 5172096.325 -4871765.867 10 0 60899 63000.00000 0 -23675725.255 5048358.270 -7961397.359 10 0 60899 63900.00000 0 -22546983.770 4721203.549 -10895918.306 10 0 60899 64800.00000 0 -21134086.198 4155214.466 -13618150.198 10 0 60899 65700.00000 0 -19491578.289 3325233.171 -16075064.464 10 0 60899 66600.00000 0 -17680064.270 2217687.032 -18218824.433 10 0 60899 67500.00000 0 -15763699.173 831421.813 -20007722.804 10 0 60899 68400.00000 0 -13807552.116 -821993.609 -21406995.930 10 0 60899 69300.00000 0 -11874952.189 -2718504.664 -22389498.983 10 0 60899 70200.00000 0 -10024928.804 -4822341.172 -22936229.167 10 0 60899 71100.00000 0 -8309853.883 -7087288.053 -23036687.415 10 0 60899 72000.00000 0 -6773384.262 -9458403.525 -22689072.305 10 0 60899 72900.00000 0 -5448789.542 -11874112.897 -21900303.347 10 0 60899 73800.00000 0 -4357733.979 -14268590.506 -20685874.102 10 0 60899 74700.00000 0 -3509561.666 -16574330.389 -19069538.862 10 0 60899 75600.00000 0 -2901112.902 -18724798.648 -17082839.750 10 0 60899 76500.00000 0 -2517077.278 -20657057.241 -14764484.053 10 0 60899 77400.00000 0 -2330866.512 -22314250.289 -12159584.401 10 0 60899 78300.00000 0 -2305968.370 -23647849.941 -9318776.943 10 0 60899 79200.00000 0 -2397722.955 -24619568.970 -6297234.882 10 0 60899 80100.00000 0 -2555445.212 -25202861.325 -3153596.706 10 0 60899 81000.00000 0 -2724803.136 -25383949.066 51169.989 10 0 60899 81900.00000 0 -2850350.799 -25162333.987 3254947.175 10 0 60899 82800.00000 0 -2878109.013 -24550773.580 6395664.757 10 0 60899 83700.00000 0 -2758084.765 -23574723.350 9412495.811 10 0 60899 84600.00000 0 -2446623.310 -22271269.466 12247025.985 10 0 60899 85500.00000 0 -1908493.995 -20687596.802 14844375.050 10 0 60900 0.00000 0 -1118622.179 -18879056.551 17154249.521 10 0 60900 900.00000 0 -63393.817 -16906912.814 19131908.057 10 0 60900 1800.00000 0 1258521.392 -14835863.943 20739018.893 10 0 60900 2700.00000 0 2835865.078 -12731437.851 21944397.740 10 0 60900 3600.00000 0 4645016.579 -10657371.011 22724609.472 10 0 60900 4500.00000 0 6650743.220 -8673078.190 23064423.766 10 0 60900 5400.00000 0 8807445.180 -6831317.246 22957115.810 10 0 60900 6300.00000 0 11060845.295 -5176145.196 22404606.078 10 0 60900 7200.00000 0 13350055.632 -3741249.976 21417435.798 10 0 60900 8100.00000 0 15609936.908 -2548726.971 20014577.611 10 0 60900 9000.00000 0 17773654.272 -1608351.219 18223083.777 10 0 60900 9900.00000 0 19775324.252 -917375.866 16077577.251 10 0 60900 10800.00000 0 21552643.216 -460865.575 13619593.992 10 0 60900 11700.00000 0 23049387.763 -212551.277 10896787.851 10 0 60900 12600.00000 0 24217682.021 -136170.602 7962012.363 10 0 60900 13500.00000 0 25019936.047 -187237.611 4872296.589 10 0 60900 14400.00000 0 25430372.803 -315166.893 1687734.620 10 0 60900 15300.00000 0 25436078.235 -465661.635 -1529689.307 10 0 60900 16200.00000 0 25037529.005 -583263.546 -4717316.543 10 0 60900 17100.00000 0 24248574.611 -613955.275 -7813045.813 10 0 60900 18000.00000 0 23095873.921 -507703.334 -10756555.677 10 0 60900 18900.00000 0 21617809.585 -220831.953 -13490492.416 10 0 60900 19800.00000 0 19862926.139 281874.558 -15961598.854 10 0 60900 20700.00000 0 17887958.069 1025431.651 -18121760.880 10 0 60900 21600.00000 0 15755531.496 2023351.691 -19928950.492 10 0 60900 22500.00000 0 13531636.877 3276834.672 -21348046.499 10 0 60900 23400.00000 0 11282979.568 4774487.459 -22351516.823 10 0 60900 24300.00000 0 9074319.854 6492583.985 -22919949.405 10 0 60900 25200.00000 0 6965914.013 8395855.762 -23042421.985 10 0 60900 26100.00000 0 5011163.226 10438779.568 -22716704.340 10 0 60900 27000.00000 0 3254567.883 12567308.335 -21949289.949 10 0 60900 27900.00000 0 1730071.517 14720972.679 -20755257.420 10 0 60900 28800.00000 0 459861.969 16835265.093 -19157965.219 10 0 60900 29700.00000 0 -546322.159 18844207.155 -17188586.420 10 0 60900 30600.00000 0 -1291352.951 20682992.671 -14885493.151 10 0 60900 31500.00000 0 -1790338.106 22290596.572 -12293503.205 10 0 60900 32400.00000 0 -2069727.327 23612241.082 -9463003.842 10 0 60900 33300.00000 0 -2165939.816 24601616.703 -6448970.041 10 0 60900 34200.00000 0 -2123572.340 25222765.949 -3309896.455 10 0 60900 35100.00000 0 -1993264.736 25451551.931 -106663.886 10 0 60900 36000.00000 0 -1829313.786 25276651.296 3098637.828 10 0 60900 36900.00000 0 -1687136.670 24700030.835 6243907.780 10 0 60900 37800.00000 0 -1620691.207 23736888.620 9268229.930 10 0 60900 38700.00000 0 -1679961.640 22415062.675 12113044.324 10 0 60900 39600.00000 0 -1908615.750 20773932.215 14723271.532 10 0 60900 40500.00000 0 -2341931.772 18862857.310 17048369.325 10 0 60900 41400.00000 0 -3005082.222 16739221.707 19043302.082 10 0 60900 42300.00000 0 -3911846.929 14466159.694 20669405.071 10 0 60900 43200.00000 0 -5063809.751 12110060.696 21895127.807 10 0 60900 44100.00000 0 -6450073.592 9737954.178 22696642.895 10 0 60900 45000.00000 0 -8047506.981 7414882.332 23058309.052 10 0 60900 45900.00000 0 -9821513.637 5201368.398 22972979.573 10 0 60900 46800.00000 0 -11727294.956 3151084.636 22442150.072 10 0 60900 47700.00000 0 -13711554.854 1308815.953 21475942.002 10 0 60900 48600.00000 0 -15714578.004 -291196.818 20092921.349 10 0 60900 49500.00000 0 -17672596.690 -1626465.374 18319754.660 10 0 60900 50400.00000 0 -19520348.972 -2686963.803 16190707.633 10 0 60900 51300.00000 0 -21193722.311 -3475310.091 13746994.470 10 0 60900 52200.00000 0 -22632372.528 -4006411.436 11035989.181 10 0 60900 53100.00000 0 -23782208.171 -4306588.020 8110313.058 10 0 60900 54000.00000 0 -24597635.404 -4412212.005 5026815.268 10 0 60900 54900.00000 0 -25043467.945 -4367919.292 1845466.132 10 0 60900 55800.00000 0 -25096420.313 -4224470.011 -1371815.136 10 0 60900 56700.00000 0 -24746120.026 -4036349.129 -4562374.699 10 0 60900 57600.00000 0 -23995594.687 -3859209.961 -7664055.670 10 0 60900 58500.00000 0 -22861212.323 -3747270.416 -10616421.601 10 0 60900 59400.00000 0 -21372076.710 -3750774.041 -13361946.615 10 0 60900 60300.00000 0 -19568902.813 -3913625.209 -15847147.622 10 0 60900 61200.00000 0 -17502419.743 -4271300.286 -18023635.355 10 0 60900 62100.00000 0 -15231368.795 -4849124.657 -19849062.879 10 0 60900 63000.00000 0 -12820181.176 -5660989.648 -21287952.655 10 0 60900 63900.00000 0 -10336433.512 -6708564.393 -22312385.916 10 0 60900 64800.00000 0 -7848188.203 -7981036.380 -22902541.254 10 0 60900 65700.00000 0 -5421330.143 -9455391.897 -23047072.498 10 0 60900 66600.00000 0 -3117011.009 -11097224.535 -22743319.328 10 0 60900 67500.00000 0 -989307.288 -12862037.686 -21997347.409 10 0 60900 68400.00000 0 916811.254 -14696986.160 -20823818.194 10 0 60900 69300.00000 0 2567119.316 -16542983.695 -19245691.802 10 0 60900 70200.00000 0 3939313.529 -18337087.906 -17293769.512 10 0 60900 71100.00000 0 5023682.636 -20015062.781 -15006085.391 10 0 60900 72000.00000 0 5823244.663 -21514011.503 -12427159.412 10 0 60900 72900.00000 0 6353347.756 -22774969.648 -9607126.946 10 0 60900 73800.00000 0 6640753.702 -23745350.578 -6600761.793 10 0 60900 74700.00000 0 6722244.657 -24381141.165 -3466411.916 10 0 60900 75600.00000 0 6642813.423 -24648756.523 -264868.608 10 0 60900 76500.00000 0 6453514.762 -24526476.763 2941809.032 10 0 60900 77400.00000 0 6209069.177 -24005406.283 6091491.622 10 0 60900 78300.00000 0 5965320.631 -23089915.994 9123176.126 10 0 60900 79200.00000 0 5776655.522 -21797550.420 11978158.884 10 0 60900 80100.00000 0 5693491.526 -20158403.707 14601162.906 10 0 60900 81000.00000 0 5759941.818 -18213990.519 16941398.424 10 0 60900 81900.00000 0 6011752.680 -16015658.418 18953537.065 10 0 60900 82800.00000 0 6474601.064 -13622607.187 20598581.738 10 0 60900 83700.00000 0 7162823.711 -11099596.383 21844616.317 10 0 60900 84600.00000 0 8078631.636 -8514435.160 22667421.395 10 0 60900 85500.00000 0 9211843.768 -5935357.183 23050944.727 10 0 60901 0.00000 0 10540152.113 -3428388.360 22987617.488 10 0 60901 900.00000 0 12029909.773 -1054813.927 22478509.940 10 0 60901 1800.00000 0 13637408.985 1131147.808 21533323.090 10 0 60901 2700.00000 0 15310600.174 3084373.791 20170215.426 10 0 60901 3600.00000 0 16991180.349 4770479.538 18415466.782 10 0 60901 4500.00000 0 18616965.841 6167010.586 16302984.432 10 0 60901 5400.00000 0 20124451.182 7264132.192 13873659.470 10 0 60901 6300.00000 0 21451447.603 8064788.280 11174584.525 10 0 60901 7200.00000 0 22539690.497 8584322.724 8258146.857 10 0 60901 8100.00000 0 23337305.827 8849578.767 5181013.733 10 0 60901 9000.00000 0 23801030.699 8897514.501 2003029.454 10 0 60901 9900.00000 0 23898093.190 8773393.141 -1213954.225 10 0 60901 10800.00000 0 23607670.592 8528625.249 -4407290.862 10 0 60901 11700.00000 0 22921862.968 8218355.217 -7514770.603 10 0 60901 12600.00000 0 21846139.465 7898895.556 -10475844.601 10 0 60901 13500.00000 0 20399237.404 7625119.247 -13232817.322 10 0 60901 14400.00000 0 18612517.578 7447922.287 -15731982.118 10 0 60901 15300.00000 0 16528802.535 7411865.501 -17924676.710 10 0 60901 16200.00000 0 14200746.668 7553096.899 -19768237.191 10 0 60901 17100.00000 0 11688806.806 7897643.590 -21226831.435 10 0 60901 18000.00000 0 9058898.850 8460146.245 -22272155.572 10 0 60901 18900.00000 0 6379838.962 9243089.981 -22883980.237 10 0 60901 19800.00000 0 3720676.573 10236564.235 -23050536.524 10 0 60901 20700.00000 0 1148030.600 11418561.571 -22768734.914 10 0 60901 21600.00000 0 -1276460.343 12755802.555 -22044213.811 10 0 60901 22500.00000 0 -3498468.235 14205051.573 -20891217.676 10 0 60901 23400.00000 0 -5472990.484 15714867.897 -19332307.999 10 0 60901 24300.00000 0 -7165966.954 17227718.098 -17397913.509 10 0 60901 25200.00000 0 -8555433.683 18682360.882 -15125729.000 10 0 60901 26100.00000 0 -9632167.353 20016404.161 -12559974.968 10 0 60901 27000.00000 0 -10399795.892 21168927.099 -9750532.850 10 0 60901 27900.00000 0 -10874372.956 22083057.336 -6751972.873 10 0 60901 28800.00000 0 -11083436.315 22708395.566 -3622493.632 10 0 60901 29700.00000 0 -11064591.630 23003186.192 -422794.014 10 0 60901 30600.00000 0 -10863682.770 22936143.524 2785100.682 10 0 60901 31500.00000 0 -10532626.821 22487857.385 5939035.759 10 0 60901 32400.00000 0 -10127005.716 21651719.689 8977924.389 10 0 60901 33300.00000 0 -9703516.230 20434333.422 11842922.382 10 0 60901 34200.00000 0 -9317385.755 18855386.998 14478558.295 10 0 60901 35100.00000 0 -9019862.350 16946999.022 16833797.792 10 0 60901 36000.00000 0 -8855884.286 14752560.246 18863022.543 10 0 60901 36900.00000 0 -8862026.687 12325120.148 20526905.669 10 0 60901 37800.00000 0 -9064811.244 9725384.093 21793167.687 10 0 60901 38700.00000 0 -9479449.994 7019402.886 22637199.144 10 0 60901 39600.00000 0 -10109076.240 4276049.104 23042538.408 10 0 60901 40500.00000 0 -10944495.627 1564383.258 23001195.619 10 0 60901 41400.00000 0 -11964469.035 -1048982.574 22513816.357 10 0 60901 42300.00000 0 -13136516.998 -3502415.629 21589681.303 10 0 60901 43200.00000 0 -14418213.707 -5741583.990 20246540.963 10 0 60901 44100.00000 0 -15758918.245 -7721473.116 18510287.370 10 0 60901 45000.00000 0 -17101872.178 -9408013.911 16414467.704 10 0 60901 45900.00000 0 -18386576.893 -10779254.619 13999647.729 10 0 60901 46800.00000 0 -19551351.802 -11826027.507 11312635.966 10 0 60901 47700.00000 0 -20535966.216 -12552082.161 8405582.527 10 0 60901 48600.00000 0 -21284233.905 -12973679.570 5334969.343 10 0 60901 49500.00000 0 -21746460.219 -13118663.960 2160511.054 10 0 60901 50400.00000 0 -21881637.278 -13025051.564 -1056011.805 10 0 60901 51300.00000 0 -21659293.010 -12739196.405 -4251963.978 10 0 60901 52200.00000 0 -21060914.201 -12313611.370 -7365086.387 10 0 60901 53100.00000 0 -20080881.788 -11804537.925 -10334721.435 10 0 60901 54000.00000 0 -18726877.387 -11269368.756 -13103007.392 10 0 60901 54900.00000 0 -17019742.710 -10764033.968 -15616017.242 10 0 60901 55800.00000 0 -14992796.989 -10340463.072 -17824818.554 10 0 60901 56700.00000 0 -12690640.702 -10044231.524 -19686432.843 10 0 60901 57600.00000 0 -10167495.733 -9912492.470 -21164675.267 10 0 60901 58500.00000 0 -7485151.737 -9972281.877 -22230858.100 10 0 60901 59400.00000 0 -4710604.957 -10239268.959 -22864344.624 10 0 60901 60300.00000 0 -1913488.372 -10717004.641 -23052943.153 10 0 60901 61200.00000 0 836599.423 -11396699.408 -22793134.313 10 0 60901 62100.00000 0 3472755.467 -12257539.321 -22090128.054 10 0 60901 63000.00000 0 5933313.460 -13267526.241 -20957750.192 10 0 60901 63900.00000 0 8164159.651 -14384806.155 -19418161.549 10 0 60901 64800.00000 0 10120728.448 -15559429.052 -17501415.951 10 0 60901 65700.00000 0 11769596.298 -16735465.815 -15244866.293 10 0 60901 66600.00000 0 13089609.289 -17853392.696 -12692430.753 10 0 60901 67500.00000 0 14072499.616 -18852642.914 -9893733.795 10 0 60901 68400.00000 0 14722967.379 -19674218.084 -6903138.904 10 0 60901 69300.00000 0 15058226.510 -20263249.806 -3778692.049 10 0 60901 70200.00000 0 15107035.909 -20571404.021 -580996.435 10 0 60901 71100.00000 0 14908258.254 -20559027.438 2627959.639 10 0 60901 72000.00000 0 14509008.411 -20196946.229 5785999.221 10 0 60901 72900.00000 0 13962470.330 -19467841.823 8831954.511 10 0 60901 73800.00000 0 13325474.774 -18367146.265 11706843.319 10 0 60901 74700.00000 0 12655939.968 -16903419.633 14355001.929 10 0 60901 75600.00000 0 12010282.606 -15098193.424 16725153.226 10 0 60901 76500.00000 0 11440907.627 -12985285.847 18771390.327 10 0 60901 77400.00000 0 10993881.692 -10609616.640 20454057.553 10 0 60901 78300.00000 0 10706887.530 -8025569.515 21740512.668 10 0 60901 79200.00000 0 10607544.595 -5294968.751 22605756.397 10 0 60901 80100.00000 0 10712166.408 -2484752.287 23032917.599 10 0 60901 81000.00000 0 11025006.903 335563.980 23013584.963 10 0 60901 81900.00000 0 11538028.063 3096527.303 22547978.655 10 0 60901 82800.00000 0 12231199.618 5731386.685 21644958.057 10 0 60901 83700.00000 0 13073319.604 8178620.850 20321864.518 10 0 60901 84600.00000 0 14023322.913 10384251.663 18604200.927 10 0 60901 85500.00000 0 15032024.437 12303847.372 16525152.860 10 0 60902 0.00000 0 16044224.889 13904132.419 14124959.314 10 0 60902 900.00000 0 17001092.304 15164137.330 11450142.463 10 0 60902 1800.00000 0 17842718.173 16075838.278 8552613.507 10 0 60902 2700.00000 0 18510742.275 16644261.974 5488666.921 10 0 60902 3600.00000 0 18950933.539 16887048.972 2317885.436 10 0 60902 4500.00000 0 19115617.388 16833494.569 -898023.979 10 0 60902 5400.00000 0 18965845.406 16523107.753 -4096439.644 10 0 60902 6300.00000 0 18473213.877 16003749.595 -7215055.635 10 0 60902 7200.00000 0 17621252.459 15329430.630 -10193107.889 10 0 60902 8100.00000 0 16406322.618 14557861.594 -12972570.637 10 0 60902 9000.00000 0 14837986.333 13747862.483 -15499298.492 10 0 60902 9900.00000 0 12938828.354 12956740.991 -17724090.678 10 0 60902 10800.00000 0 10743738.686 12237752.528 -19603655.803 10 0 60902 11700.00000 0 8298684.957 11637750.240 -21101457.826 10 0 60902 12600.00000 0 5659026.063 11195125.077 -22188426.589 10 0 60902 13500.00000 0 2887437.750 10938123.169 -22843519.318 10 0 60902 14400.00000 0 51536.956 10883611.386 -23054122.706 10 0 60902 15300.00000 0 -2778695.782 11036342.664 -22816288.493 10 0 60902 16200.00000 0 -5533588.496 11388751.236 -22134798.871 10 0 60902 17100.00000 0 -8146433.570 11921285.427 -21023061.357 10 0 60902 18000.00000 0 -10556017.176 12603262.921 -19502836.057 10 0 60902 18900.00000 0 -12708918.104 13394211.448 -17603801.415 10 0 60902 19800.00000 0 -14561481.615 14245637.501 -15362967.532 10 0 60902 20700.00000 0 -16081387.701 15103147.888 -12823948.966 10 0 60902 21600.00000 0 -17248750.251 15908834.200 -10036111.571 10 0 60902 22500.00000 0 -18056703.298 16603819.520 -7053610.148 10 0 60902 23400.00000 0 -18511451.882 17130859.980 -3934335.848 10 0 60902 24300.00000 0 -18631787.431 17436891.710 -738793.793 10 0 60902 25200.00000 0 -18448089.795 17475416.172 2471067.313 10 0 60902 26100.00000 0 -18000859.325 17208623.747 5633051.020 10 0 60902 27000.00000 0 -17338841.792 16609166.555 8685911.454 10 0 60902 27900.00000 0 -16516825.652 15661506.164 11570531.432 10 0 60902 28800.00000 0 -15593204.538 14362779.624 14231058.022 10 0 60902 29700.00000 0 -14627407.277 12723147.248 16615974.403 10 0 60902 30600.00000 0 -13677302.974 10765606.966 18679088.120 10 0 60902 31500.00000 0 -12796689.451 8525282.068 20380417.540 10 0 60902 32400.00000 0 -12032969.694 6048210.712 21686960.284 10 0 60902 33300.00000 0 -11425113.009 3389685.953 22573329.570 10 0 60902 34200.00000 0 -11001985.884 612213.461 23022246.697 10 0 60902 35100.00000 0 -10781122.197 -2216830.259 23024880.429 10 0 60902 36000.00000 0 -10767984.459 -5027743.973 22581026.568 10 0 60902 36900.00000 0 -10955747.545 -7751148.339 21699123.733 10 0 60902 37800.00000 0 -11325614.821 -10320624.832 20396104.120 10 0 60902 38700.00000 0 -11847654.551 -12675238.631 18697080.914 10 0 60902 39600.00000 0 -12482122.693 -14761841.386 16634876.984 10 0 60902 40500.00000 0 -13181217.700 -16537058.372 14249402.483 10 0 60902 41400.00000 0 -13891194.490 -17968877.148 11586891.997 10 0 60902 42300.00000 0 -14554749.138 -19037770.991 8699014.909 10 0 60902 43200.00000 0 -15113573.873 -19737309.575 5641875.400 10 0 60902 44100.00000 0 -15510974.079 -20074230.760 2474921.186 10 0 60902 45000.00000 0 -15694435.796 -20067970.059 -740217.628 10 0 60902 45900.00000 0 -15618033.738 -19749667.497 -3940936.375 10 0 60902 46800.00000 0 -15244576.266 -19160693.934 -7064885.807 10 0 60902 47700.00000 0 -14547394.678 -18350759.667 -10051198.947 10 0 60902 48600.00000 0 -13511699.264 -17375686.141 -12841689.511 10 0 60902 49500.00000 0 -12135443.080 -16294936.102 -15381997.145 10 0 60902 50400.00000 0 -10429655.502 -15169007.886 -17622655.944 10 0 60902 51300.00000 0 -8418230.384 -14056805.203 -19520064.499 10 0 60902 52200.00000 0 -6137176.889 -13013094.524 -21037338.066 10 0 60902 53100.00000 0 -3633364.064 -12086158.179 -22145026.040 10 0 60902 54000.00000 0 -962811.549 -11315742.446 -22821681.036 10 0 60902 54900.00000 0 1811402.106 -10731386.997 -23054268.984 10 0 60902 55800.00000 0 4621526.086 -10351205.530 -22838413.033 10 0 60902 56700.00000 0 7397719.431 -10181167.956 -22178467.395 10 0 60902 57600.00000 0 10070721.216 -10214913.153 -21087420.585 10 0 60902 58500.00000 0 12574498.020 -10434098.751 -19586630.859 10 0 60902 59400.00000 0 14848759.168 -10809271.811 -17705399.742 10 0 60902 60300.00000 0 16841236.051 -11301222.375 -15480392.596 10 0 60902 61200.00000 0 18509631.860 -11862761.663 -12954918.035 10 0 60902 62100.00000 0 19823162.029 -12440849.064 -10178080.577 10 0 60902 63000.00000 0 20763622.851 -12978977.567 -7203823.266 10 0 60902 63900.00000 0 21325945.508 -13419716.650 -4089879.050 10 0 60902 64800.00000 0 21518214.154 -13707305.247 -896651.375 10 0 60902 65700.00000 0 21361149.108 -13790185.506 2313954.354 10 0 60902 66600.00000 0 20887078.293 -13623370.734 5479725.845 10 0 60902 67500.00000 0 20138441.329 -13170547.974 8539342.667 10 0 60902 68400.00000 0 19165889.865 -12405826.935 11433555.867 10 0 60902 69300.00000 0 18026064.304 -11315061.748 14106326.168 10 0 60902 70200.00000 0 16779140.237 -9896689.869 16505899.478 10 0 60902 71100.00000 0 15486247.122 -8162052.430 18585799.757 10 0 60902 72000.00000 0 14206866.802 -6135181.732 20305720.936 10 0 60902 72900.00000 0 12996320.007 -3852063.507 21632301.559 10 0 60902 73800.00000 0 11903445.196 -1359403.031 22539767.964 10 0 60902 74700.00000 0 10968566.094 1287055.409 23010434.092 10 0 60902 75600.00000 0 10221832.319 4024587.952 23035048.591 10 0 60902 76500.00000 0 9682002.199 6785846.100 22612982.331 10 0 60902 77400.00000 0 9355718.728 9501411.418 21752252.257 10 0 60902 78300.00000 0 9237309.351 12102445.732 20469380.188 10 0 60902 79200.00000 0 9309118.595 14523328.223 18789088.111 10 0 60902 80100.00000 0 9542360.486 16704170.747 16743834.451 10 0 60902 81000.00000 0 9898455.850 18593107.183 14373198.800 10 0 60902 81900.00000 0 10330799.088 20148261.441 11723125.612 10 0 60902 82800.00000 0 10786880.593 21339311.536 8845040.365 10 0 60902 83700.00000 0 11210675.457 22148583.680 5794854.534 10 0 60902 84600.00000 0 11545197.350 22571629.797 2631878.309 10 0 60902 85500.00000 0 11735108.800 22617263.508 -582337.634 99